| time (UTC) | temp C | wind direction | speed KPH | gust KPH | rain 1hr cm | rain 24hr cm | rain mn cm | humidity % | barometer mb |
| 20260502184603 | 40 | 33 | 6.4 | 11.3 | 0.00 | 0.00 | 0.00 | 4 | 1011.2 |
| 20260502181603 | 38 | 222 | 9.7 | 14.5 | 0.00 | 0.00 | 0.00 | 4 | 1011.4 |
| 20260502161603 | 37 | 54 | 4.8 | 8.0 | 0.00 | 0.00 | 0.00 | 5 | 1012.0 |
| 20260502151603 | 39 | 28 | 4.8 | 6.4 | 0.00 | 0.00 | 0.00 | 5 | 1011.8 |
| 20260502121603 | 30 | 0 | 0.0 | 0.0 | 0.00 | 0.00 | 0.00 | 6 | 1009.3 |
| 20260502114603 | 30 | 210 | 0.0 | 3.2 | 0.00 | 0.00 | 0.00 | 6 | 1008.8 |
| 20260502111603 | 31 | 0 | 0.0 | 0.0 | 0.00 | 0.00 | 0.00 | 6 | 1008.5 |
| 20260502104603 | 31 | 183 | 1.6 | 3.2 | 0.00 | 0.00 | 0.00 | 5 | 1008.1 |
| 20260502101603 | 31 | 210 | 1.6 | 3.2 | 0.00 | 0.00 | 0.00 | 5 | 1007.8 |
| 20260502064604 | 32 | 228 | 6.4 | 9.7 | 0.00 | 0.00 | 0.00 | 5 | 1007.8 |
| 20260502061604 | 32 | 226 | 6.4 | 11.3 | 0.00 | 0.00 | 0.00 | 5 | 1007.8 |
| 20260502054604 | -17 | 0 | 0.0 | 0.0 | 0.00 | 0.00 | 0.00 | 100 | |
| 20260502051604 | -17 | 0 | 0.0 | 0.0 | 0.00 | 0.00 | 0.00 | 100 | |
| 20260502044604 | -17 | 0 | 0.0 | 0.0 | 0.00 | 0.00 | 0.00 | 100 | |
| 20260502041604 | -17 | 0 | 0.0 | 0.0 | 0.00 | 0.00 | 0.00 | 100 | |
| 20260502034604 | -17 | 225 | 3.2 | 3.2 | 0.00 | 0.00 | 0.00 | 100 | |
| 20260502031604 | 33 | 0 | 3.2 | 3.2 | 0.00 | 0.00 | 0.00 | 7 | 1006.9 |
| 20260502024604 | 33 | 141 | 1.6 | 4.8 | 0.00 | 0.00 | 0.00 | 7 | 1006.4 |
| 20260502021604 | 34 | 164 | 0.0 | 3.2 | 0.00 | 0.00 | 0.00 | 6 | 1006.0 |
| 20260502014604 | 33 | 74 | 3.2 | 6.4 | 0.00 | 0.00 | 0.00 | 7 | 1005.4 |
| 20260502011604 | 34 | 13 | 3.2 | 4.8 | 0.00 | 0.00 | 0.00 | 6 | 1005.0 |
| 20260502004604 | 35 | 103 | 4.8 | 6.4 | 0.00 | 0.00 | 0.00 | 6 | 1004.5 |
| 20260502001604 | 36 | 0 | 6.4 | 8.0 | 0.00 | 0.00 | 0.00 | 6 | 1004.1 |
| 20260501234604 | 37 | 0 | 3.2 | 3.2 | 0.00 | 0.00 | 0.00 | 6 | 1003.8 |
| 20260501231604 | 37 | 27 | 8.0 | 11.3 | 0.00 | 0.00 | 0.00 | 6 | 1003.8 |
| 20260501224605 | 38 | 34 | 8.0 | 11.3 | 0.00 | 0.00 | 0.00 | 5 | 1003.6 |
| 20260501221604 | 38 | 60 | 9.7 | 14.5 | 0.00 | 0.00 | 0.00 | 5 | 1003.7 |
| 20260501214604 | 39 | 20 | 6.4 | 9.7 | 0.00 | 0.00 | 0.00 | 5 | 1003.9 |
| 20260501211604 | 40 | 53 | 8.0 | 11.3 | 0.00 | 0.00 | 0.00 | 5 | 1004.1 |
| 20260501204604 | 40 | 22 | 4.8 | 6.4 | 0.00 | 0.00 | 0.00 | 5 | 1004.6 |
| 20260501201604 | 41 | 35 | 4.8 | 9.7 | 0.00 | 0.00 | 0.00 | 5 | 1005.4 |
| 20260501194604 | 40 | 68 | 6.4 | 9.7 | 0.00 | 0.00 | 0.00 | 5 | 1005.8 |
| 20260501191604 | 40 | 82 | 4.8 | 8.0 | 0.00 | 0.00 | 0.00 | 5 | 1006.6 |